User: anonymous   Login
Location: Unspecified
(0.0000°N, 0.0000°E)
Time: 08:32:59
(UTC+02:00)
Language:

ARIANE 5 R/B - Orbit

View from above orbital plane
View from above orbital plane
View from above satellite
View from above satellite

Ground track
Ground track

The orbit data is extracted from the following two-line orbital elements,

1 29646U 06054D   15091.34891431  .00001746  00000-0  59947-3 0  9996
2 29646 003.1303 340.4752 7128871 291.3139 353.0191 02.46464361 71585
Epoch (UTC): 01 April 2015 08:22:26
Eccentricity: 0.7128871
inclination: 3.1303°
perigee height: 269 km
apogee height: 33276 km
right ascension of ascending node: 340.4752°
argument of perigee: 291.3139°
revolutions per day: 2.46464361
mean anomaly at epoch: 353.0191°
orbit number at epoch: 7158

The dashed part of the orbit path shows where the satellite is in the earth's shadow,  

DLR